Tracking 21092 objects as of 14-Aug-2020
HD Live streaming from Space Station
objects crossing your sky now
Track the most recent launched group of Starlink satellites

NOAA 2 (ITOS-D)

Track NOAA 2 (ITOS-D) now!
10-day predictions
NOAA 2 (ITOS-D) is classified as:


NORAD ID: 6235
Int'l Code: 1972-082A
Perigee: 1,455.7 km
Apogee: 1,461.5 km
Inclination: 101.9 °
Period: 114.9 minutes
Semi major axis: 7829 km
RCS: 2.925 m2 (large)
Launch date: October 15, 1972
Source: United States (US)
Launch site: AIR FORCE WESTERN TEST RANGE (AFWTR)
aabbcc
Your satellite tracking list
Your tracking list is empty




NASA's NSSDC Master Catalog

Two Line Element Set (TLE):
1  6235U 72082A   20226.78449399 -.00000024 +00000-0 +13512-3 0  9992
2  6235 101.8551 196.4255 0003700 288.4833 132.1793 12.53127290187719
Source of the keplerian elements: AFSPC